Weather History for PANT - September, 2013

Change the Weather History Date:

Thursday, September 19, 2013

  Actual Average Record
Temperature  
Mean Temperature 56 °F 53 °F  
Max Temperature 58 °F 59 °F 72 °F (1976)
Min Temperature 53 °F 48 °F 39 °F (1986)
Degree Days  
Heating Degree Days 9 12  
Month to date heating degree days 100 191  
Since 1 July heating degree days 402 592  
Cooling Degree Days 0    
Month to date cooling degree days 0  
Year to date cooling degree days 22  
Growing Degree Days 6 (Base 50)    
Moisture  
Dew Point 52 °F    
Average Humidity 0    
Maximum Humidity 0    
Minimum Humidity 0    
Precipitation  
Precipitation 1.41 in 0.32 in 2.31 in (1997)
Month to date precipitation 2.41 5.88  
Year to date precipitation 54.01 60.79  
Snow  
Snow 0.00 in 0.00 in 0.00 in (2014)
Month to date snowfall 0.0 0.0  
Since 1 July snowfall 0.0 0.0  
Since 1 September snowfall 0.0 0.0  
Snow Depth 0.00 in    
Sea Level Pressure  
Sea Level Pressure 29.34 in    
Wind  
Wind Speed 21 mph (SE)    
Max Wind Speed 35 mph    
Max Gust Speed 52 mph    
Visibility 8 miles    
Events Rain    
T = Trace of Precipitation, MM = Missing Value Source: NWS Daily Summary

Daily Weather History Graph

Daily Weather History Graph

Search for Another Location

Airport or City:

Trip Planner

Search our weather history database for the weather conditions in past years. The results will help you decide how hot, cold, wet, or windy it might be!

Date:

Astronomy

Sep. 19, 2013 Rise Set
Actual Time 6:26 AM AKDT 6:51 PM AKDT
Civil Twilight 5:50 AM AKDT 7:28 PM AKDT
Nautical Twilight 5:06 AM AKDT 8:11 PM AKDT
Astronomical Twilight 4:20 AM AKDT 8:57 PM AKDT
Moon 6:39 PM AKDT (9/19) 6:54 AM AKDT (9/19)
Length of Visible Light 13h 37m
Length of Day
12h 24m
Full, 100% of the Moon is Illuminated
Sep 19
Full
Sep 26
Last Quarter
Oct 4
New
Oct 11
First Quarter
Oct 18
Full

Hourly Weather History & Observations

Time (AKDT) Temp. Dew Point Humidity Pressure Visibility Wind Dir Wind Speed Gust Speed Precip Events Conditions
12:53 AM 55.0 °F 48.0 °F 77% 29.62 in 8.0 mi East 17.3 mph 32.2 mph 0.05 in Rain Rain
1:53 AM 55.0 °F 48.0 °F 77% 29.56 in 9.0 mi East 16.1 mph 33.4 mph 0.12 in Rain Rain
2:53 AM 54.0 °F 48.0 °F 80% 29.52 in 8.0 mi East 16.1 mph 34.5 mph 0.09 in Rain Rain
3:53 AM 54.0 °F 48.9 °F 83% 29.48 in 6.0 mi ESE 19.6 mph 32.2 mph 0.11 in Rain Rain
4:45 AM 53.6 °F 50.0 °F 88% 29.45 in 5.0 mi ESE 19.6 mph 40.3 mph 0.14 in Rain Rain
4:53 AM 53.1 °F 50.0 °F 89% 29.45 in 5.0 mi ESE 18.4 mph 29.9 mph 0.15 in Rain Rain
5:50 AM 53.6 °F 51.8 °F 94% 29.43 in 5.0 mi ESE 21.9 mph 36.8 mph 0.18 in Rain Rain
5:53 AM 53.1 °F 51.1 °F 93% 29.44 in 5.0 mi ESE 21.9 mph 36.8 mph 0.19 in Rain Rain
6:53 AM 54.0 °F 52.0 °F 93% 29.43 in 4.0 mi SE 28.8 mph 41.4 mph 0.23 in Rain Rain
7:21 AM 55.4 °F 53.6 °F 94% 29.43 in 4.0 mi SE 27.6 mph 46.0 mph 0.08 in Rain Rain
7:53 AM 55.9 °F 53.1 °F 90% 29.43 in 4.0 mi SE 25.3 mph 50.6 mph 0.12 in Rain Light Rain
8:53 AM 55.9 °F 53.1 °F 90% 29.44 in 4.0 mi SE 18.4 mph 38.0 mph 0.12 in Rain Rain
9:53 AM 55.9 °F 53.1 °F 90% 29.43 in 8.0 mi SE 27.6 mph 42.6 mph 0.10 in Rain Light Rain
10:53 AM 55.9 °F 53.1 °F 90% 29.43 in 10.0 mi SE 23.0 mph 44.9 mph 0.00 in Rain Light Rain
11:53 AM 55.9 °F 53.1 °F 90% 29.41 in 10.0 mi SE 20.7 mph 36.8 mph 0.05 in Rain Light Rain
12:22 PM 55.4 °F 51.8 °F 88% 29.39 in 10.0 mi ESE 21.9 mph 34.5 mph 0.00 in   Overcast
12:53 PM 57.9 °F 51.1 °F 78% 29.38 in 10.0 mi ESE 19.6 mph 29.9 mph 0.00 in   Overcast
1:53 PM 57.0 °F 53.1 °F 87% 29.35 in 9.0 mi SE 17.3 mph 28.8 mph 0.02 in Rain Light Rain
2:53 PM 57.0 °F 53.1 °F 87% 29.31 in 9.0 mi SE 16.1 mph - 0.04 in Rain Light Rain
3:53 PM 55.9 °F 54.0 °F 93% 29.28 in 6.0 mi ESE 18.4 mph 28.8 mph 0.07 in Rain Light Rain
4:53 PM 57.0 °F 54.0 °F 89% 29.27 in 5.0 mi ESE 21.9 mph 31.1 mph 0.06 in Rain Light Rain
5:53 PM 57.9 °F 53.1 °F 84% 29.27 in 10.0 mi SE 18.4 mph 29.9 mph 0.02 in   Overcast
6:53 PM 57.0 °F 53.1 °F 87% 29.25 in 6.0 mi SE 18.4 mph 33.4 mph 0.01 in Rain Light Rain
7:53 PM 57.0 °F 53.1 °F 87% 29.23 in 3.0 mi SE 19.6 mph 34.5 mph 0.03 in Rain Rain
8:51 PM 57.2 °F 53.6 °F 88% 29.21 in 10.0 mi SE 18.4 mph 32.2 mph 0.03 in Rain Light Rain
8:53 PM 57.9 °F 53.1 °F 84% 29.22 in 10.0 mi SE 21.9 mph 32.2 mph 0.03 in Rain Light Rain
9:41 PM 59.0 °F 51.8 °F 77% 29.19 in 10.0 mi ESE 26.5 mph 40.3 mph 0.00 in   Overcast
9:51 PM 59.0 °F 53.6 °F 82% 29.19 in 10.0 mi SE 29.9 mph 36.8 mph 0.00 in   Overcast
9:53 PM 59.0 °F 53.1 °F 81% 29.19 in 10.0 mi SE 26.5 mph 39.1 mph 0.00 in   Overcast
10:13 PM 59.0 °F 51.8 °F 77% 29.19 in 10.0 mi SE 25.3 mph 40.3 mph N/A   Overcast
10:24 PM 59.0 °F 51.8 °F 77% 29.19 in 10.0 mi SE 26.5 mph 42.6 mph N/A   Overcast
10:37 PM 59.0 °F 51.8 °F 77% 29.18 in 10.0 mi SE 25.3 mph 41.4 mph N/A   Overcast
10:53 PM 59.0 °F 53.1 °F 81% 29.18 in 8.0 mi SE 26.5 mph 44.9 mph 0.00 in Rain Light Rain
11:53 PM 55.9 °F 54.0 °F 93% 29.20 in 4.0 mi SE 20.7 mph 28.8 mph 0.12 in Rain Light Rain